,,,PA_Meas_PMT16A,,PR_Meas_QMR101_102,,RH_Meas_QMH101,,SR_Meas_QMS101,,TA_Meas_QMH101,,GenWind,,GenWind,
date,time,status,PA,status,PR,status,RH,status,SR,status,TA,status,DirAvg,status,SpdAvg,
2011-10-27, 00:00:05,VALID,1002.49,VALID,0,VALID,82.6589,VALID,0,VALID,26.6809,VALID,64,VALID,0.892969,
2011-10-27, 00:01:05,VALID,1002.47,VALID,0,VALID,82.4682,VALID,0,VALID,26.6809,VALID,7,VALID,1.51602,
2011-10-27, 00:02:05,VALID,1002.45,VALID,0,VALID,82.7047,VALID,0.0815089,VALID,26.6809,VALID,31,VALID,0.441016,
2011-10-27, 00:03:05,VALID,1002.39,VALID,0,VALID,82.5674,VALID,0,VALID,26.683,VALID,30,VALID,1.15469,
2011-10-27, 00:04:05,VALID,1002.4,VALID,0,VALID,82.4377,VALID,0,VALID,26.7004,VALID,18,VALID,1.13008,
2011-10-27, 00:05:05,VALID,1002.38,VALID,0,VALID,82.4453,VALID,0.0815089,VALID,26.7199,VALID,14,VALID,0.814062,
2011-10-27, 00:06:05,VALID,1002.36,VALID,0,VALID,82.5445,VALID,0,VALID,26.6809,VALID,64,VALID,0.725,
2011-10-27, 00:07:05,VALID,1002.36,VALID,0,VALID,82.5597,VALID,0,VALID,26.642,VALID,360,VALID,1.16094,
2011-10-27, 00:08:05,VALID,1002.33,VALID,0,VALID,82.6513,VALID,0,VALID,26.642,VALID,21,VALID,0.846875,
2011-10-27, 00:09:05,VALID,1002.3,VALID,0,VALID,82.3995,VALID,0.0815089,VALID,26.6614,VALID,355,VALID,1.52891,
2011-10-27, 00:10:05,VALID,1002.3,VALID,0,VALID,82.5521,VALID,0.0815089,VALID,26.6809,VALID,14,VALID,0.8375,
2011-10-27, 00:11:05,VALID,1002.26,VALID,0,VALID,82.3995,VALID,0,VALID,26.7219,VALID,349,VALID,0.528906,
2011-10-27, 00:12:05,VALID,1002.24,VALID,0,VALID,82.5292,VALID,0.0815089,VALID,26.6809,VALID,21,VALID,0.819922,
2011-10-27, 00:13:05,VALID,1002.25,VALID,0,VALID,82.6742,VALID,0.0815089,VALID,26.6614,VALID,14,VALID,1.5207,
2011-10-27, 00:14:05,VALID,1002.26,VALID,0,VALID,82.8039,VALID,0.0815089,VALID,26.642,VALID,4,VALID,1.00859,
2011-10-27, 00:15:05,VALID,1002.28,VALID,0,VALID,82.7047,VALID,0.0815089,VALID,26.6225,VALID,72,VALID,0.588281,
2011-10-27, 00:16:05,VALID,1002.27,VALID,0,VALID,82.7657,VALID,0,VALID,26.6225,VALID,25,VALID,0.230469,
2011-10-27, 00:17:05,VALID,1002.26,VALID,0,VALID,82.8191,VALID,0,VALID,26.5835,VALID,39,VALID,0.524609,
2011-10-27, 00:18:04,VALID,1002.25,VALID,0,VALID,82.7734,VALID,0.0815089,VALID,26.5835,VALID,49,VALID,0.561719,
2011-10-27, 00:19:04,VALID,1002.22,VALID,0,VALID,82.6665,VALID,0,VALID,26.5641,VALID,353,VALID,1.01914,
2011-10-27, 00:20:04,VALID,1002.21,VALID,0,VALID,82.514,VALID,0,VALID,26.5835,VALID,10,VALID,1.0582,
2011-10-27, 00:21:04,VALID,1002.23,VALID,0,VALID,82.4835,VALID,0,VALID,26.5815,VALID,43,VALID,1.05273,
2011-10-27, 00:22:04,VALID,1002.24,VALID,0,VALID,82.2851,VALID,0,VALID,26.642,VALID,7,VALID,0.821875,
2011-10-27, 00:23:04,VALID,1002.26,VALID,0,VALID,82.2698,VALID,0,VALID,26.6614,VALID,65,VALID,0.946094,
2011-10-27, 00:24:04,VALID,1002.26,VALID,0,VALID,82.4148,VALID,0.0815089,VALID,26.642,VALID,11,VALID,0.746484,
2011-10-27, 00:25:04,VALID,1002.22,VALID,0,VALID,82.2775,VALID,0,VALID,26.601,VALID,34,VALID,0.974609,
2011-10-27, 00:26:04,VALID,1002.21,VALID,0,VALID,82.1936,VALID,0.0815089,VALID,26.642,VALID,31,VALID,0.608984,
2011-10-27, 00:27:04,VALID,1002.23,VALID,0,VALID,82.3156,VALID,0,VALID,26.642,VALID,26,VALID,1.28945,
2011-10-27, 00:28:04,VALID,1002.21,VALID,0,VALID,82.2927,VALID,0.0815089,VALID,26.6614,VALID,21,VALID,0.878906,
2011-10-27, 00:29:04,VALID,1002.2,VALID,0,VALID,82.4529,VALID,0.0815089,VALID,26.6614,VALID,12,VALID,0.549219,
2011-10-27, 00:30:04,VALID,1002.16,VALID,0,VALID,82.2393,VALID,0.0815089,VALID,26.642,VALID,30,VALID,1.35469,
2011-10-27, 00:31:04,VALID,1002.17,VALID,0,VALID,82.4987,VALID,0.0815089,VALID,26.642,VALID,30,VALID,0.723437,
2011-10-27, 00:32:04,VALID,1002.13,VALID,0,VALID,82.3004,VALID,0.0815089,VALID,26.603,VALID,346,VALID,1.02109,
2011-10-27, 00:33:04,VALID,1002.14,VALID,0,VALID,82.4148,VALID,0,VALID,26.642,VALID,29,VALID,0.770703,
2011-10-27, 00:34:04,VALID,1002.12,VALID,0,VALID,82.575,VALID,0,VALID,26.6245,VALID,32,VALID,0.944531,
2011-10-27, 00:35:04,VALID,1002.12,VALID,0,VALID,82.7428,VALID,0,VALID,26.5661,VALID,28,VALID,0.489062,
2011-10-27, 00:36:04,VALID,1002.09,VALID,0,VALID,82.7199,VALID,0,VALID,26.5251,VALID,23,VALID,1.35234,
2011-10-27, 00:37:04,VALID,1002.13,VALID,0,VALID,82.8496,VALID,0,VALID,26.5466,VALID,18,VALID,1.67539,
2011-10-27, 00:38:04,VALID,1002.11,VALID,0,VALID,82.6971,VALID,0,VALID,26.5855,VALID,30,VALID,0.852344,
2011-10-27, 00:39:04,VALID,1002.12,VALID,0,VALID,82.6131,VALID,0,VALID,26.5661,VALID,25,VALID,1.30117,
2011-10-27, 00:40:04,VALID,1002.15,VALID,0,VALID,82.6131,VALID,0,VALID,26.605,VALID,20,VALID,1.03945,
2011-10-27, 00:41:04,VALID,1002.1,VALID,0,VALID,82.4606,VALID,0,VALID,26.605,VALID,24,VALID,1.12344,
2011-10-27, 00:42:04,VALID,1002.11,VALID,0,VALID,82.4835,VALID,0,VALID,26.6265,VALID,6,VALID,0.921094,
2011-10-27, 00:43:04,VALID,1002.13,VALID,0,VALID,82.5674,VALID,0,VALID,26.5855,VALID,15,VALID,0.954297,
2011-10-27, 00:44:04,VALID,1002.12,VALID,0,VALID,82.5521,VALID,0,VALID,26.605,VALID,4,VALID,1.4207,
2011-10-27, 00:45:04,VALID,1002.12,VALID,0,VALID,82.1096,VALID,0,VALID,26.6635,VALID,1,VALID,2.07617,
2011-10-27, 00:46:04,VALID,1002.15,VALID,0,VALID,82.2164,VALID,0,VALID,26.7024,VALID,24,VALID,1.29922,
2011-10-27, 00:47:04,VALID,1002.16,VALID,0,VALID,82.041,VALID,0,VALID,26.683,VALID,26,VALID,1.15117,
2011-10-27, 00:48:04,VALID,1002.14,VALID,0,VALID,82.3843,VALID,0,VALID,26.6635,VALID,15,VALID,0.429688,
2011-10-27, 00:49:04,VALID,1002.16,VALID,0,VALID,82.3538,VALID,0.0815089,VALID,26.6635,VALID,29,VALID,1.20234,
2011-10-27, 00:50:04,VALID,1002.13,VALID,0,VALID,82.3538,VALID,0,VALID,26.642,VALID,17,VALID,1.75625,
2011-10-27, 00:51:04,VALID,1002.14,VALID,0,VALID,82.4377,VALID,0,VALID,26.642,VALID,17,VALID,0.610937,
2011-10-27, 00:52:04,VALID,1002.12,VALID,0,VALID,82.3385,VALID,0,VALID,26.642,VALID,352,VALID,1.15234,
2011-10-27, 00:53:04,VALID,1002.12,VALID,0,VALID,82.2927,VALID,0,VALID,26.642,VALID,29,VALID,1.44453,
2011-10-27, 00:54:04,VALID,1002.1,VALID,0,VALID,82.247,VALID,0,VALID,26.6809,VALID,6,VALID,2.55352,
2011-10-27, 00:55:04,VALID,1002.17,VALID,0,VALID,82.4911,VALID,0,VALID,26.6809,VALID,68,VALID,0.530859,
2011-10-27, 00:56:04,VALID,1002.2,VALID,0,VALID,82.5445,VALID,0,VALID,26.644,VALID,70,VALID,0.0933594,
2011-10-27, 00:57:04,VALID,1002.19,VALID,0,VALID,82.7657,VALID,0,VALID,26.603,VALID,67,VALID,0.00234375,
2011-10-27, 00:58:04,VALID,1002.21,VALID,0,VALID,82.8573,VALID,0,VALID,26.5446,VALID,67,VALID,0.253906,
2011-10-27, 00:59:04,VALID,1002.19,VALID,0,VALID,83.0556,VALID,0,VALID,26.4841,VALID,66,VALID,0.333984,
2011-10-27, 01:00:04,VALID,1002.2,VALID,0,VALID,83.1472,VALID,0,VALID,26.4861,VALID,358,VALID,0.434766,
2011-10-27, 01:01:04,VALID,1002.21,VALID,0,VALID,83.2387,VALID,0.0815089,VALID,26.4861,VALID,25,VALID,0.290234,
2011-10-27, 01:02:04,VALID,1002.23,VALID,0,VALID,83.2082,VALID,0.0815089,VALID,26.4861,VALID,77,VALID,0.213672,
2011-10-27, 01:03:04,VALID,1002.25,VALID,0,VALID,83.254,VALID,0.0815089,VALID,26.4861,VALID,5,VALID,1.16484,
2011-10-27, 01:04:04,VALID,1002.26,VALID,0,VALID,83.2082,VALID,0.0815089,VALID,26.5231,VALID,28,VALID,0.417578,
2011-10-27, 01:05:04,VALID,1002.3,VALID,0,VALID,82.7657,VALID,0.0815089,VALID,26.5641,VALID,360,VALID,1.02656,
2011-10-27, 01:06:04,VALID,1002.34,VALID,0,VALID,82.8802,VALID,0,VALID,26.562,VALID,8,VALID,0.2625,
2011-10-27, 01:07:04,VALID,1002.34,VALID,0,VALID,82.9336,VALID,0,VALID,26.5641,VALID,65,VALID,0.839844,
2011-10-27, 01:08:04,VALID,1002.33,VALID,0,VALID,82.903,VALID,0,VALID,26.5641,VALID,28,VALID,0.622266,
2011-10-27, 01:09:04,VALID,1002.32,VALID,0,VALID,83.2158,VALID,0,VALID,26.5251,VALID,18,VALID,0.265234,
2011-10-27, 01:10:04,VALID,1002.31,VALID,0,VALID,83.2616,VALID,0,VALID,26.5251,VALID,66,VALID,0.610156,
2011-10-27, 01:11:04,VALID,1002.29,VALID,0,VALID,83.2082,VALID,0,VALID,26.5251,VALID,2,VALID,0.829687,
2011-10-27, 01:12:04,VALID,1002.27,VALID,0,VALID,83.0404,VALID,0,VALID,26.5446,VALID,43,VALID,0.487109,
2011-10-27, 01:13:04,VALID,1002.27,VALID,0,VALID,83.1243,VALID,0,VALID,26.5641,VALID,41,VALID,0.476172,
2011-10-27, 01:14:04,VALID,1002.26,VALID,0,VALID,82.9641,VALID,0.0815089,VALID,26.5641,VALID,29,VALID,0.816797,
2011-10-27, 01:15:04,VALID,1002.19,VALID,0,VALID,83.0556,VALID,0,VALID,26.5641,VALID,18,VALID,0.273047,
2011-10-27, 01:16:04,VALID,1002.2,VALID,0,VALID,83.1624,VALID,0,VALID,26.5661,VALID,91,VALID,0.19375,
2011-10-27, 01:17:04,VALID,1002.15,VALID,0,VALID,83.1167,VALID,0,VALID,26.5231,VALID,49,VALID,0.503516,
2011-10-27, 01:18:04,VALID,1002.15,VALID,0,VALID,83.0785,VALID,0.0815089,VALID,26.5641,VALID,359,VALID,0.787891,
2011-10-27, 01:19:04,VALID,1002.1,VALID,0,VALID,82.8573,VALID,0.0815089,VALID,26.5641,VALID,29,VALID,0.980859,
2011-10-27, 01:20:04,VALID,1002.12,VALID,0,VALID,82.5674,VALID,0.0815089,VALID,26.6635,VALID,22,VALID,0.594531,
2011-10-27, 01:21:04,VALID,1002.09,VALID,0,VALID,82.4758,VALID,0,VALID,26.683,VALID,52,VALID,0.412891,
2011-10-27, 01:22:04,VALID,1002.09,VALID,0,VALID,82.6818,VALID,0,VALID,26.642,VALID,75,VALID,0.366016,
2011-10-27, 01:23:04,VALID,1002.09,VALID,0,VALID,82.781,VALID,0,VALID,26.6245,VALID,33,VALID,0.316797,
2011-10-27, 01:24:04,VALID,1002.06,VALID,0,VALID,83.0098,VALID,0,VALID,26.5835,VALID,8,VALID,0.807813,
2011-10-27, 01:25:04,VALID,1002.05,VALID,0,VALID,82.9259,VALID,0,VALID,26.5641,VALID,24,VALID,0.915234,
2011-10-27, 01:26:04,VALID,1002.03,VALID,0,VALID,82.8268,VALID,0.0815089,VALID,26.603,VALID,21,VALID,0.982813,
2011-10-27, 01:27:04,VALID,1001.99,VALID,0,VALID,82.5979,VALID,0,VALID,26.601,VALID,355,VALID,1.09727,
2011-10-27, 01:28:04,VALID,1002,VALID,0,VALID,82.5445,VALID,0.0815089,VALID,26.6225,VALID,15,VALID,1.49609,
2011-10-27, 01:29:04,VALID,1002.02,VALID,0,VALID,82.3919,VALID,0,VALID,26.6614,VALID,13,VALID,0.789844,
2011-10-27, 01:30:04,VALID,1002.01,VALID,0,VALID,82.2775,VALID,0.0815089,VALID,26.6809,VALID,5,VALID,0.925391,
2011-10-27, 01:31:04,VALID,1001.98,VALID,0,VALID,82.247,VALID,0.0815089,VALID,26.6614,VALID,80,VALID,0.934766,
2011-10-27, 01:32:04,VALID,1002.01,VALID,0,VALID,82.3614,VALID,0,VALID,26.6614,VALID,23,VALID,0.804688,
2011-10-27, 01:33:04,VALID,1002.04,VALID,0,VALID,82.7962,VALID,0.0815089,VALID,26.601,VALID,23,VALID,0.454688,
2011-10-27, 01:34:04,VALID,1002.03,VALID,0,VALID,82.7886,VALID,0,VALID,26.562,VALID,30,VALID,0.751562,
2011-10-27, 01:35:04,VALID,1002.05,VALID,0,VALID,82.8344,VALID,0.0815089,VALID,26.5835,VALID,41,VALID,0.373828,
2011-10-27, 01:36:04,VALID,1002.04,VALID,0,VALID,82.8344,VALID,0,VALID,26.5641,VALID,27,VALID,0.572656,
2011-10-27, 01:37:04,VALID,1002,VALID,0,VALID,82.6894,VALID,0,VALID,26.5641,VALID,68,VALID,0.985547,
2011-10-27, 01:38:04,VALID,1002.03,VALID,0,VALID,82.7428,VALID,0.0815089,VALID,26.5835,VALID,91,VALID,1.76523,
2011-10-27, 01:39:04,VALID,1002.01,VALID,0,VALID,82.7657,VALID,0,VALID,26.603,VALID,43,VALID,0.673047,
2011-10-27, 01:40:04,VALID,1002.03,VALID,0,VALID,82.781,VALID,0,VALID,26.605,VALID,14,VALID,0.566797,
2011-10-27, 01:41:04,VALID,1002.03,VALID,0,VALID,82.7505,VALID,0,VALID,26.5446,VALID,342,VALID,0.754687,
2011-10-27, 01:42:04,VALID,1002.02,VALID,0,VALID,82.903,VALID,0,VALID,26.5231,VALID,13,VALID,0.487891,
2011-10-27, 01:43:04,VALID,1002.06,VALID,0,VALID,82.7428,VALID,0,VALID,26.5641,VALID,81,VALID,0.610547,
2011-10-27, 01:44:04,VALID,1002.01,VALID,0,VALID,83.0861,VALID,0,VALID,26.5446,VALID,52,VALID,1.18398,
2011-10-27, 01:45:04,VALID,1002.01,VALID,0,VALID,82.9336,VALID,0,VALID,26.5446,VALID,360,VALID,0.658203,
2011-10-27, 01:46:04,VALID,1002,VALID,0,VALID,82.8725,VALID,0,VALID,26.5641,VALID,42,VALID,0.457031,
2011-10-27, 01:47:04,VALID,1001.97,VALID,0,VALID,82.6665,VALID,0,VALID,26.5641,VALID,62,VALID,0.674609,
2011-10-27, 01:48:04,VALID,1001.97,VALID,0,VALID,82.6818,VALID,0,VALID,26.5835,VALID,359,VALID,0.641797,
2011-10-27, 01:49:04,VALID,1001.94,VALID,0,VALID,82.4911,VALID,0,VALID,26.605,VALID,9,VALID,0.628906,
2011-10-27, 01:50:04,VALID,1001.96,VALID,0,VALID,82.514,VALID,0,VALID,26.605,VALID,47,VALID,0.535937,
2011-10-27, 01:51:04,VALID,1001.92,VALID,0,VALID,82.3843,VALID,0,VALID,26.5835,VALID,353,VALID,1.54766,
2011-10-27, 01:52:04,VALID,1001.94,VALID,0,VALID,82.3309,VALID,0,VALID,26.644,VALID,29,VALID,0.667188,
2011-10-27, 01:53:04,VALID,1001.98,VALID,0,VALID,82.2164,VALID,0,VALID,26.6635,VALID,49,VALID,0.395312,
2011-10-27, 01:54:04,VALID,1001.99,VALID,0,VALID,82.1554,VALID,0,VALID,26.683,VALID,58,VALID,1.20352,
2011-10-27, 01:55:04,VALID,1001.99,VALID,0,VALID,82.2393,VALID,0,VALID,26.7239,VALID,10,VALID,1.00469,
2011-10-27, 01:56:04,VALID,1002.02,VALID,0,VALID,82.0333,VALID,0,VALID,26.7024,VALID,30,VALID,0.854688,
2011-10-27, 01:57:04,VALID,1002.01,VALID,0,VALID,82.0944,VALID,0,VALID,26.7239,VALID,7,VALID,0.438281,
2011-10-27, 01:58:04,VALID,1001.98,VALID,0,VALID,82.0868,VALID,0,VALID,26.7024,VALID,342,VALID,0.0195313,
2011-10-27, 01:59:04,VALID,1001.95,VALID,0,VALID,82.102,VALID,0,VALID,26.7219,VALID,342,VALID,0.116797,
2011-10-27, 02:00:04,VALID,1001.95,VALID,0,VALID,82.1402,VALID,0,VALID,26.6809,VALID,9,VALID,0.549609,
2011-10-27, 02:01:04,VALID,1001.91,VALID,0,VALID,82.1173,VALID,0,VALID,26.6809,VALID,5,VALID,1.19922,
2011-10-27, 02:02:04,VALID,1001.92,VALID,0,VALID,82.0639,VALID,0,VALID,26.7219,VALID,353,VALID,1.89375,
2011-10-27, 02:03:04,VALID,1001.89,VALID,0,VALID,81.9189,VALID,0,VALID,26.7414,VALID,21,VALID,1.50547,
2011-10-27, 02:04:04,VALID,1001.88,VALID,0,VALID,81.7663,VALID,0,VALID,26.7589,VALID,35,VALID,1.5793,
2011-10-27, 02:05:04,VALID,1001.84,VALID,0,VALID,81.5832,VALID,0,VALID,26.7998,VALID,355,VALID,1.14414,
2011-10-27, 02:06:04,VALID,1001.82,VALID,0,VALID,81.4841,VALID,0,VALID,26.7783,VALID,13,VALID,1.88359,
2011-10-27, 02:07:04,VALID,1001.81,VALID,0,VALID,81.5985,VALID,0,VALID,26.8388,VALID,32,VALID,0.824609,
2011-10-27, 02:08:04,VALID,1001.78,VALID,0,VALID,81.507,VALID,0,VALID,26.7978,VALID,13,VALID,1.03555,
2011-10-27, 02:09:04,VALID,1001.78,VALID,0,VALID,81.8121,VALID,0,VALID,26.7589,VALID,16,VALID,0.964063,
2011-10-27, 02:10:04,VALID,1001.77,VALID,0,VALID,81.8884,VALID,0,VALID,26.7589,VALID,26,VALID,0.943359,
2011-10-27, 02:11:04,VALID,1001.75,VALID,0,VALID,82.0486,VALID,0,VALID,26.7199,VALID,13,VALID,0.807422,
2011-10-27, 02:12:04,VALID,1001.73,VALID,0,VALID,81.8045,VALID,0,VALID,26.7024,VALID,348,VALID,0.717578,
2011-10-27, 02:13:04,VALID,1001.7,VALID,0,VALID,81.9113,VALID,0,VALID,26.7004,VALID,358,VALID,0.40625,
2011-10-27, 02:14:04,VALID,1001.68,VALID,0,VALID,81.7892,VALID,0,VALID,26.6809,VALID,11,VALID,0.785547,
2011-10-27, 02:15:04,VALID,1001.67,VALID,0,VALID,81.7587,VALID,0,VALID,26.6809,VALID,34,VALID,0.471094,
2011-10-27, 02:16:04,VALID,1001.67,VALID,0,VALID,81.9571,VALID,0,VALID,26.6809,VALID,28,VALID,0.924609,
2011-10-27, 02:17:04,VALID,1001.63,VALID,0,VALID,82.0639,VALID,0,VALID,26.6635,VALID,22,VALID,0.727344,
2011-10-27, 02:18:04,VALID,1001.6,VALID,0,VALID,81.9265,VALID,0,VALID,26.6614,VALID,5,VALID,1.61797,
2011-10-27, 02:19:04,VALID,1001.57,VALID,0,VALID,81.7892,VALID,0.0815089,VALID,26.6614,VALID,20,VALID,1.27344,
2011-10-27, 02:20:04,VALID,1001.55,VALID,0,VALID,81.9799,VALID,0.0815089,VALID,26.6614,VALID,24,VALID,0.737891,
2011-10-27, 02:21:04,VALID,1001.56,VALID,0,VALID,81.9952,VALID,0,VALID,26.6225,VALID,9,VALID,1.33594,
2011-10-27, 02:22:04,VALID,1001.53,VALID,0,VALID,82.2088,VALID,0,VALID,26.603,VALID,6,VALID,1.39883,
2011-10-27, 02:23:04,VALID,1001.49,VALID,0,VALID,81.9647,VALID,0,VALID,26.6635,VALID,7,VALID,2.31172,
2011-10-27, 02:24:04,VALID,1001.45,VALID,0,VALID,81.774,VALID,0,VALID,26.7024,VALID,3,VALID,1.06211,
2011-10-27, 02:25:04,VALID,1001.46,VALID,0,VALID,81.6519,VALID,0,VALID,26.7219,VALID,15,VALID,1.19883,
2011-10-27, 02:26:04,VALID,1001.45,VALID,0,VALID,81.4612,VALID,0,VALID,26.7199,VALID,11,VALID,3.32695,
2011-10-27, 02:27:04,VALID,1001.43,VALID,0,VALID,81.5298,VALID,0.0815089,VALID,26.7589,VALID,30,VALID,1.46836,
2011-10-27, 02:28:04,VALID,1001.41,VALID,0,VALID,81.3544,VALID,0.0815089,VALID,26.7179,VALID,359,VALID,1.475,
2011-10-27, 02:29:04,VALID,1001.43,VALID,0,VALID,81.4764,VALID,0,VALID,26.7179,VALID,33,VALID,1.19531,
2011-10-27, 02:30:04,VALID,1001.43,VALID,0,VALID,81.3162,VALID,0.0815089,VALID,26.7589,VALID,18,VALID,1.92695,
2011-10-27, 02:31:04,VALID,1001.43,VALID,0,VALID,81.4002,VALID,0.0815089,VALID,26.7589,VALID,22,VALID,0.910547,
2011-10-27, 02:32:04,VALID,1001.47,VALID,0,VALID,81.6748,VALID,0,VALID,26.7199,VALID,78,VALID,0.746094,
2011-10-27, 02:33:04,VALID,1001.44,VALID,0,VALID,81.7206,VALID,0,VALID,26.6809,VALID,17,VALID,1.93945,
2011-10-27, 02:34:04,VALID,1001.45,VALID,0,VALID,81.7435,VALID,0.0815089,VALID,26.7024,VALID,8,VALID,0.996094,
2011-10-27, 02:35:04,VALID,1001.45,VALID,0,VALID,81.8655,VALID,0,VALID,26.6614,VALID,11,VALID,1.15625,
2011-10-27, 02:36:04,VALID,1001.48,VALID,0,VALID,82.0028,VALID,0,VALID,26.6614,VALID,6,VALID,1.48594,
2011-10-27, 02:37:04,VALID,1001.46,VALID,0,VALID,82.0181,VALID,0,VALID,26.6614,VALID,26,VALID,0.669531,
2011-10-27, 02:38:04,VALID,1001.46,VALID,0,VALID,82.0791,VALID,0.0815089,VALID,26.6225,VALID,36,VALID,0.520703,
2011-10-27, 02:39:04,VALID,1001.51,VALID,0,VALID,82.1554,VALID,0,VALID,26.6225,VALID,27,VALID,1.12969,
2011-10-27, 02:40:04,VALID,1001.57,VALID,0,VALID,82.2393,VALID,0,VALID,26.5815,VALID,15,VALID,0.838672,
2011-10-27, 02:41:04,VALID,1001.6,VALID,0,VALID,82.4148,VALID,0.0815089,VALID,26.5835,VALID,36,VALID,0.833594,
2011-10-27, 02:42:04,VALID,1001.6,VALID,0,VALID,82.5597,VALID,0,VALID,26.5426,VALID,43,VALID,0.501953,
2011-10-27, 02:43:04,VALID,1001.62,VALID,0,VALID,82.5903,VALID,0.0815089,VALID,26.5251,VALID,65,VALID,0.651172,
2011-10-27, 02:44:04,VALID,1001.6,VALID,0,VALID,82.6742,VALID,0,VALID,26.5251,VALID,10,VALID,1.05,
2011-10-27, 02:45:04,VALID,1001.61,VALID,0,VALID,82.6055,VALID,0.0815089,VALID,26.4841,VALID,38,VALID,0.669922,
2011-10-27, 02:46:04,VALID,1001.62,VALID,0,VALID,82.8191,VALID,0,VALID,26.5056,VALID,31,VALID,0.753125,
2011-10-27, 02:47:04,VALID,1001.66,VALID,0,VALID,82.7123,VALID,0.0815089,VALID,26.5056,VALID,65,VALID,0.85,
2011-10-27, 02:48:04,VALID,1001.68,VALID,0,VALID,82.7962,VALID,0,VALID,26.4861,VALID,19,VALID,0.509766,
2011-10-27, 02:49:04,VALID,1001.66,VALID,0,VALID,82.8496,VALID,0,VALID,26.4687,VALID,4,VALID,1.26172,
2011-10-27, 02:50:04,VALID,1001.63,VALID,0,VALID,82.7734,VALID,0,VALID,26.5076,VALID,16,VALID,1.30742,
2011-10-27, 02:51:04,VALID,1001.61,VALID,0,VALID,82.781,VALID,0,VALID,26.5271,VALID,53,VALID,0.522656,
2011-10-27, 02:52:04,VALID,1001.59,VALID,0,VALID,82.6818,VALID,0,VALID,26.5446,VALID,39,VALID,1.20234,
2011-10-27, 02:53:04,VALID,1001.61,VALID,0,VALID,82.3385,VALID,0,VALID,26.5641,VALID,21,VALID,1.06992,
2011-10-27, 02:54:04,VALID,1001.59,VALID,0,VALID,82.6894,VALID,0,VALID,26.605,VALID,77,VALID,0.845312,
2011-10-27, 02:55:04,VALID,1001.56,VALID,0,VALID,82.5903,VALID,0,VALID,26.5446,VALID,21,VALID,1.32773,
2011-10-27, 02:56:04,VALID,1001.51,VALID,0,VALID,82.3156,VALID,0,VALID,26.605,VALID,22,VALID,1.08242,
2011-10-27, 02:57:04,VALID,1001.5,VALID,0,VALID,82.4606,VALID,0,VALID,26.6245,VALID,50,VALID,0.512109,
2011-10-27, 02:58:04,VALID,1001.47,VALID,0,VALID,82.4682,VALID,0,VALID,26.5855,VALID,37,VALID,1.42148,
2011-10-27, 02:59:04,VALID,1001.44,VALID,0,VALID,82.6665,VALID,0,VALID,26.5446,VALID,106,VALID,0.9375,
2011-10-27, 03:00:04,VALID,1001.46,VALID,0,VALID,82.636,VALID,0,VALID,26.5446,VALID,1,VALID,0.825,
2011-10-27, 03:01:04,VALID,1001.43,VALID,0,VALID,82.7428,VALID,0,VALID,26.5271,VALID,6,VALID,0.677344,
2011-10-27, 03:02:04,VALID,1001.45,VALID,0,VALID,82.7505,VALID,0,VALID,26.5056,VALID,69,VALID,1.01523,
2011-10-27, 03:03:04,VALID,1001.45,VALID,0,VALID,82.5597,VALID,0,VALID,26.5466,VALID,26,VALID,1.5543,
2011-10-27, 03:04:04,VALID,1001.46,VALID,0,VALID,82.3538,VALID,0,VALID,26.5835,VALID,29,VALID,1.24961,
2011-10-27, 03:05:04,VALID,1001.42,VALID,0,VALID,82.4835,VALID,0,VALID,26.5835,VALID,25,VALID,1.1543,
2011-10-27, 03:06:04,VALID,1001.4,VALID,0,VALID,82.1936,VALID,0,VALID,26.6245,VALID,8,VALID,1.45234,
2011-10-27, 03:07:04,VALID,1001.38,VALID,0,VALID,81.7282,VALID,0,VALID,26.6635,VALID,39,VALID,1.58945,
2011-10-27, 03:08:04,VALID,1001.37,VALID,0,VALID,81.8503,VALID,0,VALID,26.7024,VALID,25,VALID,1.0875,
2011-10-27, 03:09:04,VALID,1001.35,VALID,0,VALID,81.8503,VALID,0,VALID,26.7024,VALID,18,VALID,1.24219,
2011-10-27, 03:10:04,VALID,1001.33,VALID,0,VALID,81.7129,VALID,0,VALID,26.7004,VALID,12,VALID,1.45508,
2011-10-27, 03:11:04,VALID,1001.29,VALID,0,VALID,81.5909,VALID,0,VALID,26.7199,VALID,33,VALID,1.38867,
2011-10-27, 03:12:04,VALID,1001.29,VALID,0,VALID,81.7206,VALID,0,VALID,26.6809,VALID,71,VALID,0.44375,
2011-10-27, 03:13:04,VALID,1001.27,VALID,0,VALID,82.0257,VALID,0,VALID,26.642,VALID,48,VALID,0.539844,
2011-10-27, 03:14:04,VALID,1001.24,VALID,0,VALID,81.8426,VALID,0,VALID,26.644,VALID,8,VALID,0.958594,
2011-10-27, 03:15:04,VALID,1001.23,VALID,0,VALID,81.9952,VALID,0,VALID,26.6225,VALID,37,VALID,0.998047,
2011-10-27, 03:16:04,VALID,1001.23,VALID,0,VALID,81.7282,VALID,0,VALID,26.642,VALID,28,VALID,1.40352,
2011-10-27, 03:17:04,VALID,1001.22,VALID,0,VALID,81.4764,VALID,0,VALID,26.7004,VALID,9,VALID,1.28164,
2011-10-27, 03:18:04,VALID,1001.21,VALID,0,VALID,81.034,VALID,0,VALID,26.7783,VALID,10,VALID,1.99219,
2011-10-27, 03:19:04,VALID,1001.18,VALID,0,VALID,80.9501,VALID,0,VALID,26.8368,VALID,6,VALID,0.893359,
2011-10-27, 03:20:04,VALID,1001.21,VALID,0,VALID,81.1484,VALID,0.0815089,VALID,26.8368,VALID,19,VALID,0.688672,
2011-10-27, 03:21:04,VALID,1001.21,VALID,0,VALID,81.2934,VALID,0,VALID,26.7978,VALID,32,VALID,1.41953,
2011-10-27, 03:22:04,VALID,1001.2,VALID,0,VALID,81.3086,VALID,0,VALID,26.8193,VALID,20,VALID,1.60117,
2011-10-27, 03:23:04,VALID,1001.22,VALID,0,VALID,81.3925,VALID,0,VALID,26.8193,VALID,8,VALID,0.905859,
2011-10-27, 03:24:04,VALID,1001.19,VALID,0,VALID,81.5298,VALID,0,VALID,26.7998,VALID,33,VALID,1.10273,
2011-10-27, 03:25:04,VALID,1001.21,VALID,0,VALID,81.5985,VALID,0,VALID,26.7804,VALID,15,VALID,1.08008,
2011-10-27, 03:26:04,VALID,1001.23,VALID,0,VALID,81.5604,VALID,0,VALID,26.8019,VALID,20,VALID,0.477734,
2011-10-27, 03:27:04,VALID,1001.25,VALID,0,VALID,81.7358,VALID,0,VALID,26.7609,VALID,332,VALID,0.183203,
2011-10-27, 03:28:04,VALID,1001.28,VALID,0,VALID,81.8884,VALID,0,VALID,26.7219,VALID,13,VALID,1.30156,
2011-10-27, 03:29:04,VALID,1001.26,VALID,0,VALID,81.8426,VALID,0,VALID,26.7024,VALID,6,VALID,1.26484,
2011-10-27, 03:30:04,VALID,1001.28,VALID,0,VALID,81.9342,VALID,0,VALID,26.7219,VALID,27,VALID,1.49297,
2011-10-27, 03:31:04,VALID,1001.25,VALID,0,VALID,81.9799,VALID,0,VALID,26.7199,VALID,360,VALID,1.15625,
2011-10-27, 03:32:04,VALID,1001.3,VALID,0,VALID,81.9723,VALID,0,VALID,26.6809,VALID,25,VALID,0.858594,
2011-10-27, 03:33:04,VALID,1001.25,VALID,0,VALID,82.0257,VALID,0,VALID,26.7024,VALID,38,VALID,1.08203,
2011-10-27, 03:34:04,VALID,1001.27,VALID,0,VALID,81.9265,VALID,0,VALID,26.7004,VALID,347,VALID,1.60586,
2011-10-27, 03:35:04,VALID,1001.26,VALID,0,VALID,82.1249,VALID,0.0815089,VALID,26.7004,VALID,13,VALID,0.323047,
2011-10-27, 03:36:04,VALID,1001.32,VALID,0,VALID,82.1173,VALID,0.0815089,VALID,26.6614,VALID,11,VALID,0.750781,
2011-10-27, 03:37:04,VALID,1001.37,VALID,0,VALID,82.2851,VALID,0.0815089,VALID,26.6205,VALID,12,VALID,0.715625,
2011-10-27, 03:38:04,VALID,1001.42,VALID,0,VALID,82.4377,VALID,0.0815089,VALID,26.601,VALID,87,VALID,1.21992,
2011-10-27, 03:39:04,VALID,1001.44,VALID,0,VALID,82.4529,VALID,0.0815089,VALID,26.5835,VALID,42,VALID,0.760547,
2011-10-27, 03:40:04,VALID,1001.46,VALID,0,VALID,82.5063,VALID,0.0815089,VALID,26.5835,VALID,85,VALID,0.336719,
2011-10-27, 03:41:04,VALID,1001.44,VALID,0,VALID,82.6513,VALID,0,VALID,26.5446,VALID,85,VALID,0.450781,
2011-10-27, 03:42:04,VALID,1001.47,VALID,0,VALID,82.8496,VALID,0.0815089,VALID,26.5056,VALID,20,VALID,1.05508,
2011-10-27, 03:43:04,VALID,1001.46,VALID,0,VALID,83.0709,VALID,0.0815089,VALID,26.4646,VALID,41,VALID,0.822266,